| time (UTC) | temp F | wind direction | speed MPH | gust MPH | rain 1hr in | rain 24hr in | rain mn in | humidity % | barometer mb |
| 20260904064526 | 69 | 169 | 0.0 | 0.0 | 0.00 | 0.53 | 0.07 | 94 | 1012.6 |
| 20260904063021 | 69 | 169 | 0.0 | 2.0 | 0.00 | 0.53 | 0.07 | 93 | 1012.3 |
| 20260904061520 | 69 | 169 | 0.0 | 2.0 | 0.00 | 0.53 | 0.07 | 93 | 1012.2 |
| 20260904060021 | 69 | 175 | 0.0 | 2.0 | 0.00 | 0.53 | 0.07 | 93 | 1012.4 |
| 20260904054529 | 69 | 184 | 0.0 | 2.0 | 0.01 | 0.53 | 0.07 | 93 | 1012.7 |
| 20260904053014 | 70 | 177 | 0.0 | 2.0 | 0.03 | 0.53 | 0.07 | 93 | 1013.0 |
| 20260904051513 | 70 | 175 | 0.0 | 2.0 | 0.06 | 0.53 | 0.07 | 92 | 1013.0 |
| 20260904050015 | 70 | 150 | 0.0 | 2.0 | 0.07 | 0.53 | 0.07 | 93 | 1013.6 |
| 20260904044512 | 70 | 126 | 0.0 | 2.0 | 0.15 | 0.52 | 0.06 | 92 | 1013.8 |
| 20260904043012 | 70 | 168 | 0.0 | 2.0 | 0.50 | 0.50 | 0.04 | 92 | 1014.7 |
| 20260904041503 | 70 | 201 | 0.0 | 3.0 | 0.47 | 0.47 | 0.01 | 91 | 1015.3 |
| 20260904040100 | 71 | 178 | 0.0 | 2.0 | 0.46 | 0.46 | 0.00 | 90 | 1015.4 |
| 20260904034600 | 71 | 182 | 1.0 | 4.0 | 0.37 | 0.37 | 0.37 | 88 | 1016.6 |
| 20260904033056 | 74 | 329 | 0.0 | 8.0 | 0.00 | 0.00 | 0.00 | 79 | 1015.6 |
| 20260904031555 | 77 | 335 | 1.0 | 8.0 | 0.00 | 0.00 | 0.00 | 71 | 1015.8 |
| 20260904030058 | 80 | 261 | 1.0 | 6.0 | 0.00 | 0.00 | 0.00 | 62 | 1015.6 |
| 20260904024559 | 82 | 245 | 2.0 | 8.0 | 0.00 | 0.00 | 0.00 | 63 | 1014.8 |
| 20260904023058 | 82 | 259 | 0.0 | 2.0 | 0.00 | 0.00 | 0.00 | 73 | 1013.6 |
| 20260904021555 | 81 | 194 | 0.0 | 2.0 | 0.00 | 0.00 | 0.00 | 74 | 1013.4 |
| 20260904020052 | 81 | 190 | 0.0 | 0.0 | 0.00 | 0.00 | 0.00 | 79 | 1013.6 |
| 20260904014552 | 82 | 190 | 0.0 | 0.0 | 0.00 | 0.00 | 0.00 | 76 | 1013.5 |
| 20260904013051 | 82 | 190 | 0.0 | 0.0 | 0.00 | 0.00 | 0.00 | 74 | 1013.2 |
| 20260904011607 | 83 | 190 | 0.0 | 0.0 | 0.00 | 0.00 | 0.00 | 73 | 1013.3 |
| 20260904004549 | 84 | 190 | 0.0 | 0.0 | 0.00 | 0.00 | 0.00 | 70 | 1013.0 |
| 20260904003049 | 85 | 190 | 0.0 | 0.0 | 0.00 | 0.00 | 0.00 | 67 | 1013.1 |
| 20260904001548 | 85 | 190 | 0.0 | 0.0 | 0.00 | 0.00 | 0.00 | 66 | 1013.2 |
| 20260904000056 | 86 | 190 | 0.0 | 0.0 | 0.00 | 0.00 | 0.00 | 63 | 1013.4 |
| 20260903234548 | 87 | 190 | 0.0 | 2.0 | 0.00 | 0.00 | 0.00 | 63 | 1013.6 |
| 20260903233048 | 87 | 168 | 0.0 | 0.0 | 0.00 | 0.00 | 0.00 | 64 | 1013.4 |
| 20260903231549 | 88 | 168 | 0.0 | 2.0 | 0.00 | 0.00 | 0.00 | 65 | 1012.8 |
| 20260903230048 | 89 | 174 | 0.0 | 2.0 | 0.00 | 0.00 | 0.00 | 63 | 1012.7 |
| 20260903224548 | 90 | 161 | 0.0 | 2.0 | 0.00 | 0.00 | 0.00 | 62 | 1012.6 |
| 20260903223045 | 91 | 184 | 0.0 | 2.0 | 0.00 | 0.00 | 0.00 | 60 | 1012.6 |
| 20260903221545 | 93 | 201 | 0.0 | 2.0 | 0.00 | 0.00 | 0.00 | 57 | 1012.4 |
| 20260903220043 | 94 | 190 | 0.0 | 3.0 | 0.00 | 0.00 | 0.00 | 54 | 1012.2 |
| 20260903214544 | 94 | 210 | 0.0 | 3.0 | 0.00 | 0.00 | 0.00 | 53 | 1012.2 |
| 20260903213052 | 93 | 178 | 0.0 | 3.0 | 0.00 | 0.00 | 0.00 | 54 | 1012.2 |
| 20260903211543 | 93 | 197 | 0.0 | 4.0 | 0.00 | 0.00 | 0.00 | 53 | 1012.4 |
| 20260903210038 | 93 | 138 | 0.0 | 4.0 | 0.00 | 0.00 | 0.00 | 54 | 1012.6 |
| 20260903204536 | 93 | 190 | 0.0 | 3.0 | 0.00 | 0.00 | 0.00 | 54 | 1012.5 |
| 20260903203055 | 93 | 157 | 1.0 | 4.0 | 0.00 | 0.00 | 0.00 | 54 | 1012.7 |
| 20260903201536 | 92 | 193 | 0.0 | 3.0 | 0.00 | 0.00 | 0.00 | 54 | 1013.0 |
| 20260903200028 | 92 | 204 | 0.0 | 3.0 | 0.00 | 0.00 | 0.00 | 56 | 1013.2 |
| 20260903194525 | 92 | 188 | 1.0 | 4.0 | 0.00 | 0.00 | 0.00 | 57 | 1013.3 |
| 20260903193028 | 92 | 194 | 1.0 | 5.0 | 0.00 | 0.00 | 0.00 | 56 | 1013.8 |
| 20260903191517 | 90 | 221 | 1.0 | 6.0 | 0.00 | 0.00 | 0.00 | 57 | 1014.0 |
| 20260903190014 | 89 | 205 | 1.0 | 3.0 | 0.00 | 0.00 | 0.00 | 57 | 1014.3 |
| 20260903184511 | 89 | 238 | 1.0 | 3.0 | 0.00 | 0.00 | 0.00 | 60 | 1014.5 |
| 20260903183010 | 89 | 202 | 0.0 | 5.0 | 0.00 | 0.00 | 0.00 | 61 | 1014.6 |
| 20260903181512 | 87 | 129 | 0.0 | 3.0 | 0.00 | 0.00 | 0.00 | 62 | 1014.7 |
| 20260903180013 | 86 | 159 | 1.0 | 4.0 | 0.00 | 0.00 | 0.00 | 63 | 1015.1 |
| 20260903174504 | 86 | 205 | 1.0 | 3.0 | 0.00 | 0.00 | 0.00 | 65 | 1015.5 |
| 20260903173003 | 86 | 186 | 0.0 | 3.0 | 0.00 | 0.00 | 0.00 | 63 | 1015.8 |
| 20260903171613 | 85 | 246 | 0.0 | 2.0 | 0.00 | 0.00 | 0.00 | 67 | 1016.0 |
| 20260903170056 | 83 | 191 | 0.0 | 2.0 | 0.00 | 0.00 | 0.00 | 70 | 1016.2 |
| 20260903164621 | 82 | 258 | 0.0 | 2.0 | 0.00 | 0.00 | 0.00 | 71 | 1016.7 |
| 20260903163058 | 82 | 262 | 0.0 | 2.0 | 0.00 | 0.00 | 0.00 | 72 | 1017.0 |
| 20260903161550 | 81 | 279 | 0.0 | 2.0 | 0.00 | 0.00 | 0.00 | 74 | 1016.9 |
| 20260903160053 | 81 | 28 | 0.0 | 2.0 | 0.00 | 0.00 | 0.00 | 73 | 1017.4 |
| 20260903154551 | 81 | 344 | 1.0 | 6.0 | 0.00 | 0.00 | 0.00 | 75 | 1017.3 |
| 20260903153048 | 81 | 321 | 2.0 | 9.0 | 0.00 | 0.00 | 0.00 | 75 | 1017.3 |
| 20260903151544 | 80 | 327 | 1.0 | 3.0 | 0.00 | 0.00 | 0.00 | 77 | 1017.4 |
| 20260903150041 | 79 | 187 | 0.0 | 2.0 | 0.00 | 0.00 | 0.00 | 79 | 1016.7 |
| 20260903144544 | 78 | 177 | 0.0 | 2.0 | 0.00 | 0.00 | 0.00 | 80 | 1016.9 |
| 20260903143044 | 77 | 345 | 0.0 | 2.0 | 0.00 | 0.00 | 0.00 | 82 | 1017.1 |
| 20260903141535 | 76 | 198 | 0.0 | 2.0 | 0.00 | 0.00 | 0.00 | 83 | 1017.1 |
| 20260903140039 | 76 | 165 | 0.0 | 2.0 | 0.00 | 0.00 | 0.00 | 84 | 1016.6 |
| 20260903134529 | 75 | 212 | 0.0 | 2.0 | 0.00 | 0.00 | 0.00 | 86 | 1016.8 |
| 20260903133028 | 74 | 238 | 0.0 | 2.0 | 0.00 | 0.00 | 0.00 | 87 | 1017.0 |
| 20260903131528 | 73 | 171 | 0.0 | 2.0 | 0.00 | 0.00 | 0.00 | 89 | 1016.8 |
| 20260903130026 | 73 | 228 | 0.0 | 2.0 | 0.00 | 0.00 | 0.00 | 90 | 1017.4 |
| 20260903124526 | 72 | 259 | 0.0 | 2.0 | 0.00 | 0.00 | 0.00 | 89 | 1017.6 |
| 20260903123026 | 72 | 342 | 0.0 | 2.0 | 0.00 | 0.00 | 0.00 | 90 | 1018.1 |
| 20260903121531 | 72 | 346 | 0.0 | 1.0 | 0.00 | 0.00 | 0.00 | 90 | 1017.8 |
| 20260903120036 | 72 | 345 | 0.0 | 2.0 | 0.00 | 0.00 | 0.00 | 91 | 1017.6 |
| 20260903114522 | 71 | 341 | 0.0 | 3.0 | 0.00 | 0.00 | 0.00 | 91 | 1017.6 |
| 20260903113026 | 71 | 331 | 0.0 | 2.0 | 0.00 | 0.00 | 0.00 | 91 | 1017.3 |
| 20260903111518 | 71 | 338 | 0.0 | 9.0 | 0.00 | 0.00 | 0.00 | 91 | 1017.1 |
| 20260903110018 | 71 | 348 | 1.0 | 8.0 | 0.00 | 0.00 | 0.00 | 91 | 1017.0 |
| 20260903104514 | 71 | 340 | 1.0 | 5.0 | 0.00 | 0.00 | 0.00 | 91 | 1016.7 |
| 20260903103012 | 71 | 347 | 0.0 | 3.0 | 0.00 | 0.00 | 0.00 | 91 | 1016.0 |
| 20260903101520 | 72 | 338 | 1.0 | 2.0 | 0.00 | 0.00 | 0.00 | 90 | 1015.6 |
| 20260903100020 | 72 | 171 | 0.0 | 2.0 | 0.00 | 0.00 | 0.00 | 90 | 1014.9 |
| 20260903094520 | 72 | 171 | 0.0 | 0.0 | 0.00 | 0.00 | 0.00 | 90 | 1014.9 |
| 20260903093007 | 72 | 171 | 0.0 | 0.0 | 0.00 | 0.00 | 0.00 | 89 | 1015.0 |
| 20260903091507 | 72 | 171 | 0.0 | 1.0 | 0.00 | 0.00 | 0.00 | 89 | 1014.9 |
| 20260903090005 | 73 | 171 | 0.0 | 2.0 | 0.00 | 0.00 | 0.00 | 89 | 1014.9 |
| 20260903084507 | 73 | 171 | 0.0 | 0.0 | 0.00 | 0.00 | 0.00 | 89 | 1014.9 |
| 20260903083002 | 73 | 171 | 0.0 | 0.0 | 0.00 | 0.00 | 0.00 | 88 | 1014.9 |
| 20260903081502 | 73 | 171 | 0.0 | 0.0 | 0.00 | 0.00 | 0.00 | 87 | 1014.9 |
| 20260903074558 | 74 | 171 | 0.0 | 2.0 | 0.00 | 0.00 | 0.00 | 87 | 1014.8 |
| 20260903073058 | 74 | 169 | 0.0 | 2.0 | 0.00 | 0.00 | 0.00 | 87 | 1014.8 |
| 20260903071628 | 74 | 169 | 0.0 | 2.0 | 0.00 | 0.00 | 0.00 | 87 | 1014.9 |
| 20260903070058 | 74 | 168 | 0.0 | 2.0 | 0.00 | 0.00 | 0.00 | 87 | 1014.8 |